GW7179 Weather Reports


Display with metric or nautical units.
time (UTC)temp
F
wind
direction
speed
MPH
gust
MPH
rain 1hr
in
rain 24hr
in
rain mn
in
humidity
%
barometer
mb
20260906223431 98 96 3.0 5.0 0.00 0.00 0.00 37 988.5
20260906222931 98 173 4.0 8.0 0.00 0.00 0.00 37 988.8
20260906222433 99 213 3.0 7.0 0.00 0.00 0.00 36 988.8
20260906221933 98 155 2.0 6.0 0.00 0.00 0.00 37 988.5
20260906221431 98 51 0.0 6.0 0.00 0.00 0.00 37 988.5
20260906220931 99 180 6.0 10.0 0.00 0.00 0.00 36 988.8
20260906220431 99 175 7.0 8.0 0.00 0.00 0.00 36 988.5
20260906215931 99 179 3.0 7.0 0.00 0.00 0.00 37 988.5
20260906215431 98 242 3.0 8.0 0.00 0.00 0.00 38 988.5
20260906214931 98 214 7.0 10.0 0.00 0.00 0.00 37 988.8
20260906214432 99 175 4.0 11.0 0.00 0.00 0.00 36 988.8
20260906213931 99 179 5.0 7.0 0.00 0.00 0.00 37 988.8
20260906213431 99 178 5.0 10.0 0.00 0.00 0.00 37 988.8
20260906212933 99 157 4.0 6.0 0.00 0.00 0.00 37 988.8
20260906212431 99 74 5.0 7.0 0.00 0.00 0.00 37 989.2
20260906211931 98 58 5.0 9.0 0.00 0.00 0.00 38 989.2
20260906211431 98 176 2.0 5.0 0.00 0.00 0.00 39 989.2
20260906210931 99 174 5.0 9.0 0.00 0.00 0.00 39 989.2
20260906210431 100 182 4.0 6.0 0.00 0.00 0.00 37 989.2
20260906205931 98 69 3.0 6.0 0.00 0.00 0.00 39 989.5
20260906205431 98 208 4.0 8.0 0.00 0.00 0.00 39 989.5
20260906204931 99 356 4.0 6.0 0.00 0.00 0.00 39 989.5
20260906204431 98 215 4.0 6.0 0.00 0.00 0.00 39 989.8
20260906203932 98 183 2.0 7.0 0.00 0.00 0.00 39 989.8
20260906203431 99 184 3.0 7.0 0.00 0.00 0.00 38 989.8
20260906202931 98 178 3.0 7.0 0.00 0.00 0.00 40 989.8
20260906202431 98 231 5.0 7.0 0.00 0.00 0.00 39 989.8
20260906201931 98 147 9.0 9.0 0.00 0.00 0.00 39 989.8
20260906201432 98 217 3.0 9.0 0.00 0.00 0.00 39 989.8
20260906200932 98 279 3.0 7.0 0.00 0.00 0.00 40 989.8
20260906200431 97 213 4.0 5.0 0.00 0.00 0.00 41 989.8
20260906195932 98 185 6.0 11.0 0.00 0.00 0.00 41 989.8
20260906195431 98 176 3.0 6.0 0.00 0.00 0.00 38 989.8
20260906194932 98 178 5.0 8.0 0.00 0.00 0.00 39 990.2
20260906194431 97 202 3.0 7.0 0.00 0.00 0.00 42 989.8
20260906193931 97 162 7.0 10.0 0.00 0.00 0.00 41 990.2
20260906193431 97 224 7.0 8.0 0.00 0.00 0.00 42 990.2
20260906192931 97 188 2.0 9.0 0.00 0.00 0.00 41 990.5
20260906192431 98 173 8.0 13.0 0.00 0.00 0.00 41 990.5
20260906191931 97 135 3.0 6.0 0.00 0.00 0.00 42 990.5
20260906191431 96 248 5.0 10.0 0.00 0.00 0.00 43 990.5
20260906190931 97 168 5.0 6.0 0.00 0.00 0.00 42 990.5
20260906190431 97 188 7.0 8.0 0.00 0.00 0.00 43 990.5
20260906185932 96 201 5.0 6.0 0.00 0.00 0.00 45 990.5
20260906185431 96 191 2.0 8.0 0.00 0.00 0.00 43 990.9
20260906184932 96 269 0.0 7.0 0.00 0.00 0.00 42 990.5
20260906184431 97 167 4.0 7.0 0.00 0.00 0.00 43 990.5
20260906183932 96 42 4.0 7.0 0.00 0.00 0.00 44 990.9
20260906183431 96 193 5.0 9.0 0.00 0.00 0.00 44 991.2
20260906182931 96 45 2.0 6.0 0.00 0.00 0.00 44 991.2
20260906182432 96 166 3.0 9.0 0.00 0.00 0.00 44 991.2
20260906181931 95 250 2.0 7.0 0.00 0.00 0.00 46 991.2
20260906181431 95 165 4.0 9.0 0.00 0.00 0.00 46 991.2
20260906180932 95 169 5.0 7.0 0.00 0.00 0.00 45 991.5
20260906180431 95 235 4.0 7.0 0.00 0.00 0.00 47 991.2
20260906175932 94 224 3.0 7.0 0.00 0.00 0.00 47 991.5
20260906175432 95 219 4.0 9.0 0.00 0.00 0.00 48 991.5
20260906174932 94 202 3.0 5.0 0.00 0.00 0.00 50 991.5
20260906174431 95 208 4.0 9.0 0.00 0.00 0.00 48 991.9
20260906173931 94 172 4.0 8.0 0.00 0.00 0.00 48 991.5
20260906173431 94 179 3.0 5.0 0.00 0.00 0.00 47 991.9
20260906172931 94 83 4.0 6.0 0.00 0.00 0.00 48 991.9
20260906172431 94 214 3.0 7.0 0.00 0.00 0.00 50 991.9
20260906171932 94 220 5.0 7.0 0.00 0.00 0.00 49 991.9
20260906171431 93 198 4.0 5.0 0.00 0.00 0.00 51 992.2
20260906170931 93 217 3.0 6.0 0.00 0.00 0.00 50 991.9
20260906170431 93 200 2.0 8.0 0.00 0.00 0.00 50 992.2
20260906165931 94 162 5.0 5.0 0.00 0.00 0.00 51 992.6
20260906165431 93 180 3.0 8.0 0.00 0.00 0.00 52 992.2
20260906164931 93 100 2.0 7.0 0.00 0.00 0.00 51 992.2
20260906164431 92 218 5.0 7.0 0.00 0.00 0.00 54 992.6
20260906163932 92 226 2.0 8.0 0.00 0.00 0.00 53 992.6
20260906163431 92 223 4.0 8.0 0.00 0.00 0.00 53 992.6
20260906162931 92 223 7.0 7.0 0.00 0.00 0.00 52 992.6
20260906162431 92 146 5.0 6.0 0.00 0.00 0.00 53 992.6
20260906161931 91 79 2.0 4.0 0.00 0.00 0.00 55 992.6
20260906161431 91 231 3.0 4.0 0.00 0.00 0.00 56 992.2
20260906160931 91 109 2.0 5.0 0.00 0.00 0.00 56 992.2
20260906160433 91 232 1.0 4.0 0.00 0.00 0.00 57 992.6
20260906155931 90 172 3.0 6.0 0.00 0.00 0.00 59 992.2
20260906155431 90 174 5.0 6.0 0.00 0.00 0.00 60 992.2
20260906154931 90 174 4.0 6.0 0.00 0.00 0.00 59 992.2
20260906154432 90 178 2.0 6.0 0.00 0.00 0.00 62 992.2
20260906153931 89 251 4.0 5.0 0.00 0.00 0.00 64 992.2
20260906153434 89 205 2.0 5.0 0.00 0.00 0.00 63 992.2
20260906152931 89 201 2.0 5.0 0.00 0.00 0.00 65 992.2
20260906152431 89 252 3.0 5.0 0.00 0.00 0.00 63 991.9
20260906151931 89 170 3.0 5.0 0.00 0.00 0.00 63 992.2
20260906151432 89 160 3.0 5.0 0.00 0.00 0.00 62 992.2
20260906150932 89 4 3.0 4.0 0.00 0.00 0.00 63 991.9
20260906150431 89 183 2.0 4.0 0.00 0.00 0.00 63 991.9
20260906145931 87 256 0.0 3.0 0.00 0.00 0.00 66 991.9
20260906145433 87 177 2.0 4.0 0.00 0.00 0.00 68 991.9
20260906144931 87 217 5.0 5.0 0.00 0.00 0.00 68 991.9
20260906144431 88 207 3.0 4.0 0.00 0.00 0.00 65 991.9
20260906143728 87 204 2.0 3.0 0.00 0.00 0.00 64 991.9
20260906142931 87 204 1.0 4.0 0.00 0.00 0.00 65 991.9
20260906142431 87 97 0.0 3.0 0.00 0.00 0.00 65 991.9
20260906141932 87 278 0.0 3.0 0.00 0.00 0.00 66 991.9
20260906141432 87 67 2.0 3.0 0.00 0.00 0.00 66 991.9
20260906140931 86 4 1.0 3.0 0.00 0.00 0.00 66 991.9
20260906140432 86 205 2.0 2.0 0.00 0.00 0.00 67 991.9
20260906135933 86 233 2.0 3.0 0.00 0.00 0.00 68 991.9
20260906135431 85 75 0.0 3.0 0.00 0.00 0.00 68 991.9
20260906134932 85 348 3.0 3.0 0.00 0.00 0.00 69 991.9
20260906134431 85 360 2.0 4.0 0.00 0.00 0.00 70 991.9
20260906133931 84 3 0.0 5.0 0.00 0.00 0.00 71 991.9
20260906133433 84 311 3.0 4.0 0.00 0.00 0.00 71 991.9
20260906132932 83 19 3.0 4.0 0.00 0.00 0.00 73 991.9
20260906132432 83 6 5.0 7.0 0.00 0.00 0.00 73 991.9
20260906131932 83 118 3.0 3.0 0.00 0.00 0.00 74 991.9
20260906131431 83 64 2.0 3.0 0.00 0.00 0.00 74 991.9
20260906130932 83 104 0.0 3.0 0.00 0.00 0.00 74 991.9
20260906130431 82 89 0.0 3.0 0.00 0.00 0.00 75 991.9
20260906125932 81 1 2.0 4.0 0.00 0.00 0.00 77 991.9
20260906125431 80 347 2.0 3.0 0.00 0.00 0.00 79 991.9
20260906124931 79 44 0.0 3.0 0.00 0.00 0.00 81 991.9
20260906124432 78 342 3.0 3.0 0.00 0.00 0.00 84 991.5
20260906123931 77 336 3.0 4.0 0.00 0.00 0.00 85 991.5
20260906123431 77 347 2.0 3.0 0.00 0.00 0.00 85 991.5
20260906122934 77 346 2.0 4.0 0.00 0.00 0.00 85 991.9
20260906122433 77 329 3.0 3.0 0.00 0.00 0.00 85 991.5
20260906121932 77 351 3.0 5.0 0.00 0.00 0.00 86 991.5
20260906121431 77 31 3.0 4.0 0.00 0.00 0.00 86 991.2
20260906120932 77 251 2.0 3.0 0.00 0.00 0.00 85 991.2
20260906120431 77 87 0.0 3.0 0.00 0.00 0.00 85 991.2
20260906115931 77 290 0.0 3.0 0.00 0.00 0.00 86 990.9
20260906115431 77 205 0.0 3.0 0.00 0.00 0.00 85 991.2
20260906114931 77 302 1.0 3.0 0.00 0.00 0.00 84 991.2
20260906114431 77 328 1.0 2.0 0.00 0.00 0.00 84 991.2
20260906113932 77 77 0.0 3.0 0.00 0.00 0.00 85 990.9
20260906113431 77 309 3.0 5.0 0.00 0.00 0.00 85 991.2
20260906112931 77 360 4.0 6.0 0.00 0.00 0.00 84 990.9
20260906112431 77 10 2.0 3.0 0.00 0.00 0.00 84 990.9
20260906111931 77 347 2.0 5.0 0.00 0.00 0.00 84 990.5
20260906111431 78 9 2.0 4.0 0.00 0.00 0.00 83 990.9
20260906110932 78 211 2.0 4.0 0.00 0.00 0.00 83 991.2
20260906110431 78 359 3.0 4.0 0.00 0.00 0.00 83 990.9
20260906105933 78 339 2.0 4.0 0.00 0.00 0.00 82 990.9
20260906105431 78 62 0.0 3.0 0.00 0.00 0.00 82 990.5
20260906104932 78 278 2.0 3.0 0.00 0.00 0.00 81 990.5
20260906104432 78 76 0.0 3.0 0.00 0.00 0.00 81 990.9
20260906103931 79 242 0.0 1.0 0.00 0.00 0.00 80 990.9
20260906103431 79 245 2.0 4.0 0.00 0.00 0.00 81 990.5
20260906102931 78 14 2.0 5.0 0.00 0.00 0.00 81 990.5
20260906102431 79 339 0.0 1.0 0.00 0.00 0.00 81 990.9
20260906101932 79 315 0.0 2.0 0.00 0.00 0.00 81 990.5
20260906101431 79 308 1.0 2.0 0.00 0.00 0.00 80 990.9
20260906100932 79 316 1.0 2.0 0.00 0.00 0.00 80 990.5
20260906100432 79 322 1.0 2.0 0.00 0.00 0.00 79 990.5
20260906095932 79 296 1.0 2.0 0.00 0.00 0.00 78 990.5
20260906095431 80 309 1.0 2.0 0.00 0.00 0.00 77 990.5
20260906094931 80 310 2.0 2.0 0.00 0.00 0.00 76 990.5
20260906094431 80 308 2.0 2.0 0.00 0.00 0.00 75 990.2
20260906093931 81 321 2.0 2.0 0.00 0.00 0.00 75 990.2
20260906093431 81 324 1.0 2.0 0.00 0.00 0.00 74 989.8
20260906092932 82 298 2.0 2.0 0.00 0.00 0.00 73 990.5
20260906092431 82 238 0.0 2.0 0.00 0.00 0.00 73 989.8
20260906091931 82 201 0.0 3.0 0.00 0.00 0.00 73 990.2
20260906091431 82 249 1.0 3.0 0.00 0.00 0.00 73 990.2
20260906090932 82 175 3.0 3.0 0.00 0.00 0.00 72 990.2
20260906090431 82 187 1.0 4.0 0.00 0.00 0.00 72 989.8
20260906085931 82 221 3.0 5.0 0.00 0.00 0.00 72 989.8
20260906085431 82 231 0.0 5.0 0.00 0.00 0.00 72 989.8
20260906084931 83 258 1.0 5.0 0.00 0.00 0.00 72 989.8
20260906084431 83 228 0.0 4.0 0.00 0.00 0.00 72 990.2
20260906083932 83 215 3.0 6.0 0.00 0.00 0.00 71 990.2
20260906083431 83 168 3.0 6.0 0.00 0.00 0.00 71 990.2
20260906082931 83 194 2.0 5.0 0.00 0.00 0.00 71 990.2
20260906082431 83 26 0.0 5.0 0.00 0.00 0.00 71 990.2
20260906081931 83 217 3.0 5.0 0.00 0.00 0.00 71 989.8
20260906081431 83 231 3.0 5.0 0.00 0.00 0.00 71 989.8
20260906080931 83 232 2.0 3.0 0.00 0.00 0.00 70 989.8
20260906080432 83 205 0.0 6.0 0.00 0.00 0.00 70 989.8
20260906075932 83 244 2.0 4.0 0.00 0.00 0.00 71 989.8
20260906075432 83 222 2.0 4.0 0.00 0.00 0.00 71 989.8
20260906074931 83 225 3.0 3.0 0.00 0.00 0.00 71 990.2
20260906074432 83 224 3.0 3.0 0.00 0.00 0.00 71 989.8
20260906073931 83 284 1.0 4.0 0.00 0.00 0.00 71 990.2
20260906073431 83 278 0.0 2.0 0.00 0.00 0.00 72 990.2
20260906072933 83 269 1.0 2.0 0.00 0.00 0.00 72 990.5
20260906072431 84 287 2.0 2.0 0.00 0.00 0.00 71 990.5
20260906071931 84 305 2.0 2.0 0.00 0.00 0.00 70 990.5
20260906071432 84 271 1.0 2.0 0.00 0.00 0.00 70 990.2
20260906070932 84 217 0.0 3.0 0.00 0.00 0.00 70 990.5
20260906070431 84 251 0.0 2.0 0.00 0.00 0.00 70 990.5
20260906065931 84 235 1.0 2.0 0.00 0.00 0.00 70 990.5
20260906065432 84 247 1.0 2.0 0.00 0.00 0.00 69 990.2
20260906064931 84 296 1.0 2.0 0.00 0.00 0.00 69 990.5
20260906064431 84 294 2.0 2.0 0.00 0.00 0.00 68 990.2
20260906063931 84 201 1.0 2.0 0.00 0.00 0.00 68 990.2
20260906063431 85 249 0.0 3.0 0.00 0.00 0.00 67 990.5
20260906062931 85 246 2.0 2.0 0.00 0.00 0.00 67 990.2
20260906062431 85 250 2.0 3.0 0.00 0.00 0.00 66 990.5
20260906061931 85 222 2.0 3.0 0.00 0.00 0.00 66 990.2
20260906061431 85 200 2.0 3.0 0.00 0.00 0.00 66 990.2
20260906060933 85 184 1.0 2.0 0.00 0.00 0.00 66 990.5
20260906060432 85 237 0.0 3.0 0.00 0.00 0.00 66 990.5
20260906055931 85 216 1.0 2.0 0.00 0.00 0.00 66 990.5
20260906055432 85 285 1.0 2.0 0.00 0.00 0.00 65 990.2
20260906054931 85 272 2.0 2.0 0.00 0.00 0.00 65 990.5
20260906054431 86 256 1.0 2.0 0.00 0.00 0.00 64 990.5
20260906053931 86 211 1.0 2.0 0.00 0.00 0.00 64 990.5
20260906053431 86 213 1.0 2.0 0.00 0.00 0.00 63 990.5
20260906052931 86 182 1.0 2.0 0.00 0.00 0.00 63 990.5
20260906052431 86 241 2.0 4.0 0.00 0.00 0.00 63 990.2
20260906051931 86 200 2.0 4.0 0.00 0.00 0.00 63 990.5
20260906051431 86 201 0.0 3.0 0.00 0.00 0.00 62 990.5
20260906050932 87 266 1.0 4.0 0.00 0.00 0.00 62 990.5
20260906050431 87 175 4.0 4.0 0.00 0.00 0.00 62 990.5
20260906045933 87 181 2.0 5.0 0.00 0.00 0.03 61 990.5
20260906045431 87 149 3.0 7.0 0.00 0.00 0.03 61 990.5
20260906044931 87 240 2.0 5.0 0.00 0.00 0.03 61 990.5
20260906044431 87 170 3.0 5.0 0.00 0.00 0.03 61 990.2
20260906043932 87 180 5.0 5.0 0.00 0.00 0.03 60 990.5
20260906043431 87 171 4.0 6.0 0.00 0.00 0.03 60 990.5
20260906042931 87 224 2.0 4.0 0.00 0.00 0.03 59 990.5
20260906042432 87 193 1.0 3.0 0.00 0.00 0.03 59 990.2
20260906041931 87 194 2.0 4.0 0.00 0.00 0.03 59 990.2
20260906041432 87 230 3.0 5.0 0.00 0.00 0.03 59 990.2
20260906040934 87 176 3.0 3.0 0.00 0.00 0.03 59 990.2
20260906040431 87 179 3.0 4.0 0.00 0.00 0.03 59 990.5
20260906035931 87 215 5.0 5.0 0.00 0.00 0.03 59 990.2
20260906035431 88 248 0.0 3.0 0.00 0.00 0.03 59 990.5
20260906034931 88 218 1.0 3.0 0.00 0.00 0.03 58 990.5
20260906034431 88 229 2.0 4.0 0.00 0.00 0.03 58 990.2
20260906033932 88 205 2.0 4.0 0.00 0.00 0.03 57 990.2
20260906033431 88 251 2.0 3.0 0.00 0.00 0.03 57 990.2
20260906032932 88 194 2.0 5.0 0.00 0.00 0.03 57 990.2
20260906032431 88 201 2.0 5.0 0.00 0.00 0.03 57 990.2
20260906031931 89 190 3.0 5.0 0.00 0.00 0.03 56 990.5
20260906031431 89 173 4.0 4.0 0.00 0.00 0.03 56 990.5
20260906030934 89 180 2.0 3.0 0.00 0.00 0.03 56 990.5
20260906030432 89 197 4.0 5.0 0.00 0.00 0.03 57 990.5
20260906025932 89 205 2.0 4.0 0.00 0.00 0.03 58 990.5
20260906025434 89 180 5.0 6.0 0.00 0.00 0.03 57 990.2
20260906024933 89 167 2.0 5.0 0.00 0.00 0.03 57 990.2
20260906024431 89 172 3.0 5.0 0.00 0.00 0.03 57 990.2
20260906023931 89 148 5.0 5.0 0.00 0.00 0.03 56 990.2
20260906023431 89 154 3.0 6.0 0.00 0.00 0.03 56 989.8
20260906022931 89 180 4.0 5.0 0.00 0.00 0.03 56 989.8
20260906022431 89 170 4.0 6.0 0.00 0.00 0.03 55 989.8
20260906021931 89 162 3.0 7.0 0.00 0.00 0.03 56 989.8
20260906021431 89 167 4.0 7.0 0.00 0.00 0.03 56 989.5
20260906020935 90 162 7.0 9.0 0.00 0.00 0.03 55 989.8
20260906020431 90 186 5.0 8.0 0.00 0.00 0.03 55 989.5
20260906015932 90 160 4.0 7.0 0.00 0.00 0.03 55 989.5
20260906015431 91 224 1.0 7.0 0.00 0.00 0.03 55 989.5
20260906014931 91 145 3.0 7.0 0.00 0.00 0.03 54 989.5
20260906014431 91 167 3.0 5.0 0.00 0.00 0.03 53 989.2
20260906013931 91 148 2.0 5.0 0.00 0.00 0.03 52 989.2
20260906013432 92 81 5.0 7.0 0.00 0.00 0.03 50 989.2
20260906012933 92 161 7.0 10.0 0.00 0.00 0.03 49 989.2
20260906012431 93 163 7.0 9.0 0.00 0.00 0.03 48 988.8
20260906011931 93 280 3.0 3.0 0.00 0.00 0.03 43 988.5
20260906011431 94 45 0.0 3.0 0.00 0.00 0.03 43 988.5
20260906010931 94 10 1.0 3.0 0.00 0.00 0.03 42 988.5
20260906010431 94 179 2.0 3.0 0.00 0.00 0.03 42 988.5
20260906005931 94 344 1.0 2.0 0.00 0.00 0.03 41 988.5
20260906005431 95 318 0.0 2.0 0.00 0.00 0.03 40 988.1
20260906004931 95 41 1.0 2.0 0.00 0.00 0.03 40 988.5
20260906004431 95 322 2.0 3.0 0.00 0.00 0.03 39 988.1
20260906003931 95 150 2.0 5.0 0.00 0.00 0.03 39 988.5
20260906003431 96 75 2.0 3.0 0.00 0.00 0.03 39 988.1
20260906002931 96 16 0.0 6.0 0.00 0.00 0.03 39 988.5
20260906002431 96 29 2.0 3.0 0.00 0.00 0.03 38 988.1
20260906001932 97 322 1.0 3.0 0.00 0.00 0.03 39 988.5
20260906001439 97 335 1.0 4.0 0.00 0.00 0.03 39 988.5
20260906000931 97 218 3.0 4.0 0.00 0.00 0.03 38 988.5
20260906000433 97 195 4.0 5.0 0.00 0.00 0.03 39 988.1
20260905235931 97 225 2.0 3.0 0.00 0.00 0.03 37 988.1
20260905235432 98 236 3.0 5.0 0.00 0.00 0.03 36 988.1
20260905234931 98 269 2.0 4.0 0.00 0.00 0.03 37 988.1
20260905234432 98 188 3.0 5.0 0.00 0.00 0.03 36 988.1
20260905233931 98 192 4.0 4.0 0.00 0.00 0.03 36 988.1
20260905233431 98 174 1.0 4.0 0.00 0.00 0.03 35 988.1
20260905232931 99 209 2.0 5.0 0.00 0.00 0.03 35 988.1
20260905232432 99 279 2.0 4.0 0.00 0.00 0.03 36 988.1
20260905231932 98 247 2.0 4.0 0.00 0.00 0.03 37 988.1
20260905231432 98 253 2.0 5.0 0.00 0.00 0.03 37 988.1
20260905230932 98 182 1.0 3.0 0.00 0.00 0.03 36 988.1
20260905230431 98 259 3.0 8.0 0.00 0.00 0.03 36 988.1
20260905225933 98 267 3.0 5.0 0.00 0.00 0.03 36 988.1
20260905225432 98 205 3.0 5.0 0.00 0.00 0.03 37 988.1
20260905224932 99 213 2.0 5.0 0.00 0.00 0.03 36 988.1
20260905224431 99 202 3.0 5.0 0.00 0.00 0.03 36 988.1
20260905223931 98 224 4.0 5.0 0.00 0.00 0.03 36 988.1